Volver al catálogo

STARLINK-35280

ActivoComunicacionesVLEO
NORAD 66025·PAYLOAD·🇺🇸 United States

Lanzado Oct 16, 2025 desde Cape Canaveral Space Force Station

Loading…

Próximos Pases (próximas 24 horas)

TLE

ActualizadoSource: CelesTrak SupGP

Época: Sep 15, 2026, 03:36 UTC

1 66025C 25232W   26258.15048611  .00017895  00000+0  52858-3 0  2580
2 66025  53.1596 302.8602 0001305  91.4958  37.7225 15.34389133    13

Sigue STARLINK-35280 en tiempo real con AllMySat

Download on the App Store